{"data":{"norad_id":62742,"intl_designator":"2025-014H","name":"STARLINK-32775","alt_names":[],"object_type":"PAYLOAD","status":"ACTIVE","operator":null,"country":"US","launch_date":"2025-01-21","launch_site_code":"AFETR","launch_vehicle":null,"mission":null,"orbit_class":"UNKNOWN","rcs_meters":null,"size_class":null,"mass_kg":null,"dimensions":null,"purposes":["comms"],"wikipedia_slug":null,"has_3d_model":false,"image_url":null,"decayed_at":null,"tle_current":{"epoch":"2026-05-24T04:22:22.122336Z","epoch_age_seconds":146029,"freshness":"FRESH","line1":"1 62742U 25014H   26144.18220049  .00010118  00000+0  37661-3 0  9992","line2":"2 62742  43.0015  87.9882 0001528 267.1924  92.8753 15.27586404 74800","mean_motion":15.27586404,"eccentricity":0.0001528,"inclination_deg":43.0015,"raan_deg":87.9882,"arg_perigee_deg":267.1924,"mean_anomaly_deg":92.8753,"bstar":0.00037661,"rev_number":7480,"period_min":94.266353525362,"perigee_km":481.98153392141,"apogee_km":484.07830653223,"semimajor_km":6861.1669202268,"source":"CELESTRAK","updated_at":"2026-05-25T13:38:19.739565Z"}}}